Year,Month,Day,Hour,Minute,Value (Times are PST for temperature in C)
2015,09,22,00,00,7.80
2015,09,22,00,01,7.80
2015,09,22,00,02,7.80
2015,09,22,00,03,7.70
2015,09,22,00,04,7.70
2015,09,22,00,05,7.70
2015,09,22,00,06,7.70
2015,09,22,00,07,7.70
2015,09,22,00,08,7.70
2015,09,22,00,09,7.70
2015,09,22,00,10,7.70
2015,09,22,00,11,7.70
2015,09,22,00,12,7.70
2015,09,22,00,13,7.70
2015,09,22,00,14,7.70
2015,09,22,00,15,7.70
2015,09,22,00,16,7.70
2015,09,22,00,17,7.70
2015,09,22,00,18,7.70
2015,09,22,00,19,7.70
2015,09,22,00,20,7.70
2015,09,22,00,21,7.70
2015,09,22,00,22,7.70
2015,09,22,00,23,7.70
2015,09,22,00,24,7.70
2015,09,22,00,25,7.70
2015,09,22,00,26,7.70
2015,09,22,00,27,7.70
2015,09,22,00,28,7.60
2015,09,22,00,29,7.60
2015,09,22,00,30,7.60
2015,09,22,00,31,7.60
2015,09,22,00,32,7.60
2015,09,22,00,33,7.60
2015,09,22,00,34,7.60
2015,09,22,00,35,7.60
2015,09,22,00,36,7.60
2015,09,22,00,37,7.60
2015,09,22,00,38,7.60
2015,09,22,00,39,7.60
2015,09,22,00,40,7.60
2015,09,22,00,41,7.50
2015,09,22,00,42,7.50
2015,09,22,00,43,7.50
2015,09,22,00,44,7.50
2015,09,22,00,45,7.50
2015,09,22,00,46,7.50
2015,09,22,00,47,7.50
2015,09,22,00,48,7.50
2015,09,22,00,49,7.50
2015,09,22,00,50,7.50
2015,09,22,00,51,7.50
2015,09,22,00,52,7.50
2015,09,22,00,53,7.50
2015,09,22,00,54,7.60
2015,09,22,00,55,7.60
2015,09,22,00,56,7.60
2015,09,22,00,57,7.60
2015,09,22,00,58,7.70
2015,09,22,00,59,7.70
2015,09,22,01,00,7.70
2015,09,22,01,01,7.70
2015,09,22,01,02,7.70
2015,09,22,01,03,7.70
2015,09,22,01,04,7.70
2015,09,22,01,05,7.70
2015,09,22,01,06,7.70
2015,09,22,01,07,7.70
2015,09,22,01,08,7.70
2015,09,22,01,09,7.70
2015,09,22,01,10,7.70
2015,09,22,01,11,7.70
2015,09,22,01,12,7.70
2015,09,22,01,13,7.70
2015,09,22,01,14,7.60
2015,09,22,01,15,7.60
2015,09,22,01,16,7.60
2015,09,22,01,17,7.60
2015,09,22,01,18,7.60
2015,09,22,01,19,7.60
2015,09,22,01,20,7.60
2015,09,22,01,21,7.60
2015,09,22,01,22,7.60
2015,09,22,01,23,7.60
2015,09,22,01,24,7.60
2015,09,22,01,25,7.60
2015,09,22,01,26,7.60
2015,09,22,01,27,7.50
2015,09,22,01,28,7.50
2015,09,22,01,29,7.50
2015,09,22,01,30,7.50
2015,09,22,01,31,7.50
2015,09,22,01,32,7.50
2015,09,22,01,33,7.50
2015,09,22,01,34,7.50
2015,09,22,01,35,7.50
2015,09,22,01,36,7.40
2015,09,22,01,37,7.40
2015,09,22,01,38,7.40
2015,09,22,01,39,7.40
2015,09,22,01,40,7.40
2015,09,22,01,41,7.40
2015,09,22,01,42,7.40
2015,09,22,01,43,7.40
2015,09,22,01,44,7.40
2015,09,22,01,45,7.40
2015,09,22,01,46,7.40
2015,09,22,01,47,7.40
2015,09,22,01,48,7.40
2015,09,22,01,49,7.40
2015,09,22,01,50,7.40
2015,09,22,01,51,7.40
2015,09,22,01,52,7.40
2015,09,22,01,53,7.30
2015,09,22,01,54,7.30
2015,09,22,01,55,7.30
2015,09,22,01,56,7.30
2015,09,22,01,57,7.30
2015,09,22,01,58,7.30
2015,09,22,01,59,7.30
2015,09,22,02,00,7.30
2015,09,22,02,01,7.30
2015,09,22,02,02,7.30
2015,09,22,02,03,7.40
2015,09,22,02,04,7.40
2015,09,22,02,05,7.40
2015,09,22,02,06,7.40
2015,09,22,02,07,7.40
2015,09,22,02,08,7.40
2015,09,22,02,09,7.40
2015,09,22,02,10,7.40
2015,09,22,02,11,7.40
2015,09,22,02,12,7.40
2015,09,22,02,13,7.40
2015,09,22,02,14,7.30
2015,09,22,02,15,7.30
2015,09,22,02,16,7.30
2015,09,22,02,17,7.30
2015,09,22,02,18,7.30
2015,09,22,02,19,7.30
2015,09,22,02,20,7.30
2015,09,22,02,21,7.30
2015,09,22,02,22,7.20
2015,09,22,02,23,7.20
2015,09,22,02,24,7.20
2015,09,22,02,25,7.20
2015,09,22,02,26,7.20
2015,09,22,02,27,7.10
2015,09,22,02,28,7.10
2015,09,22,02,29,7.00
2015,09,22,02,30,6.90
2015,09,22,02,31,6.90
2015,09,22,02,32,6.80
2015,09,22,02,33,6.80
2015,09,22,02,34,6.80
2015,09,22,02,35,6.80
2015,09,22,02,36,6.70
2015,09,22,02,37,6.70
2015,09,22,02,38,6.70
2015,09,22,02,39,6.70
2015,09,22,02,40,6.70
2015,09,22,02,41,6.70
2015,09,22,02,42,6.70
2015,09,22,02,43,6.70
2015,09,22,02,44,6.70
2015,09,22,02,45,6.60
2015,09,22,02,46,6.60
2015,09,22,02,47,6.60
2015,09,22,02,48,6.60
2015,09,22,02,49,6.60
2015,09,22,02,50,6.60
2015,09,22,02,51,6.60
2015,09,22,02,52,6.60
2015,09,22,02,53,6.60
2015,09,22,02,54,6.60
2015,09,22,02,55,6.60
2015,09,22,02,56,6.60
2015,09,22,02,57,6.60
2015,09,22,02,58,6.60
2015,09,22,02,59,6.60
2015,09,22,03,00,6.70
2015,09,22,03,01,6.70
2015,09,22,03,02,6.70
2015,09,22,03,03,6.70
2015,09,22,03,04,6.70
2015,09,22,03,05,6.70
2015,09,22,03,06,6.70
2015,09,22,03,07,6.70
2015,09,22,03,08,6.70
2015,09,22,03,09,6.70
2015,09,22,03,10,6.70
2015,09,22,03,11,6.70
2015,09,22,03,12,6.70
2015,09,22,03,13,6.70
2015,09,22,03,14,6.60
2015,09,22,03,15,6.60
2015,09,22,03,16,6.60
2015,09,22,03,17,6.60
2015,09,22,03,18,6.70
2015,09,22,03,19,6.70
2015,09,22,03,20,6.70
2015,09,22,03,21,6.70
2015,09,22,03,22,6.70
2015,09,22,03,23,6.70
2015,09,22,03,24,6.70
2015,09,22,03,25,6.70
2015,09,22,03,26,6.70
2015,09,22,03,27,6.70
2015,09,22,03,28,6.70
2015,09,22,03,29,6.70
2015,09,22,03,30,6.70
2015,09,22,03,31,6.70
2015,09,22,03,32,6.70
2015,09,22,03,33,6.70
2015,09,22,03,34,6.70
2015,09,22,03,35,6.70
2015,09,22,03,36,6.70
2015,09,22,03,37,6.70
2015,09,22,03,38,6.70
2015,09,22,03,39,6.70
2015,09,22,03,40,6.70
2015,09,22,03,41,6.70
2015,09,22,03,42,6.70
2015,09,22,03,43,6.70
2015,09,22,03,44,6.70
2015,09,22,03,45,6.70
2015,09,22,03,46,6.60
2015,09,22,03,47,6.60
2015,09,22,03,48,6.60
2015,09,22,03,49,6.60
2015,09,22,03,50,6.60
2015,09,22,03,51,6.60
2015,09,22,03,52,6.50
2015,09,22,03,53,6.50
2015,09,22,03,54,6.50
2015,09,22,03,55,6.50
2015,09,22,03,56,6.50
2015,09,22,03,57,6.50
2015,09,22,03,58,6.50
2015,09,22,03,59,6.50
2015,09,22,04,00,6.50
2015,09,22,04,01,6.50
2015,09,22,04,02,6.50
2015,09,22,04,03,6.50
2015,09,22,04,04,6.40
2015,09,22,04,05,6.40
2015,09,22,04,06,6.40
2015,09,22,04,07,6.40
2015,09,22,04,08,6.40
2015,09,22,04,09,6.40
2015,09,22,04,10,6.40
2015,09,22,04,11,6.40
2015,09,22,04,12,6.40
2015,09,22,04,13,6.40
2015,09,22,04,14,6.40
2015,09,22,04,15,6.40
2015,09,22,04,16,6.40
2015,09,22,04,17,6.40
2015,09,22,04,18,6.40
2015,09,22,04,19,6.40
2015,09,22,04,20,6.40
2015,09,22,04,21,6.40
2015,09,22,04,22,6.40
2015,09,22,04,23,6.40
2015,09,22,04,24,6.40
2015,09,22,04,25,6.40
2015,09,22,04,26,6.40
2015,09,22,04,27,6.40
2015,09,22,04,28,6.40
2015,09,22,04,29,6.40
2015,09,22,04,30,6.40
2015,09,22,04,31,6.40
2015,09,22,04,32,6.40
2015,09,22,04,33,6.40
2015,09,22,04,34,6.30
2015,09,22,04,35,6.30
2015,09,22,04,36,6.30
2015,09,22,04,37,6.30
2015,09,22,04,38,6.30
2015,09,22,04,39,6.30
2015,09,22,04,40,6.30
2015,09,22,04,41,6.30
2015,09,22,04,42,6.30
2015,09,22,04,43,6.30
2015,09,22,04,44,6.30
2015,09,22,04,45,6.30
2015,09,22,04,46,6.30
2015,09,22,04,47,6.30
2015,09,22,04,48,6.30
2015,09,22,04,49,6.30
2015,09,22,04,50,6.30
2015,09,22,04,51,6.30
2015,09,22,04,52,6.30
2015,09,22,04,53,6.30
2015,09,22,04,54,6.30
2015,09,22,04,55,6.30
2015,09,22,04,56,6.30
2015,09,22,04,57,6.30
2015,09,22,04,58,6.30
2015,09,22,04,59,6.30
2015,09,22,05,00,6.30
2015,09,22,05,01,6.30
2015,09,22,05,02,6.30
2015,09,22,05,03,6.30
2015,09,22,05,04,6.30
2015,09,22,05,05,6.30
2015,09,22,05,06,6.30
2015,09,22,05,07,6.30
2015,09,22,05,08,6.30
2015,09,22,05,09,6.30
2015,09,22,05,10,6.30
2015,09,22,05,11,6.30
2015,09,22,05,12,6.30
2015,09,22,05,13,6.30
2015,09,22,05,14,6.30
2015,09,22,05,15,6.30
2015,09,22,05,16,6.30
2015,09,22,05,17,6.30
2015,09,22,05,18,6.30
2015,09,22,05,19,6.30
2015,09,22,05,20,6.30
2015,09,22,05,21,6.30
2015,09,22,05,22,6.20
2015,09,22,05,23,6.20
2015,09,22,05,24,6.20
2015,09,22,05,25,6.20
2015,09,22,05,26,6.20
2015,09,22,05,27,6.20
2015,09,22,05,28,6.20
2015,09,22,05,29,6.20
2015,09,22,05,30,6.20
2015,09,22,05,31,6.10
2015,09,22,05,32,6.10
2015,09,22,05,33,6.10
2015,09,22,05,34,6.10
2015,09,22,05,35,6.10
2015,09,22,05,36,6.10
2015,09,22,05,37,6.10
2015,09,22,05,38,6.00
2015,09,22,05,39,6.00
2015,09,22,05,40,6.00
2015,09,22,05,41,6.00
2015,09,22,05,42,6.00
2015,09,22,05,43,5.90
2015,09,22,05,44,5.90
2015,09,22,05,45,5.90
2015,09,22,05,46,5.90
2015,09,22,05,47,5.90
2015,09,22,05,48,5.90
2015,09,22,05,49,5.90
2015,09,22,05,50,5.90
2015,09,22,05,51,5.90
2015,09,22,05,52,5.90
2015,09,22,05,53,5.90
2015,09,22,05,54,5.90
2015,09,22,05,55,5.90
2015,09,22,05,56,5.90
2015,09,22,05,57,5.90
2015,09,22,05,58,5.90
2015,09,22,05,59,5.90
2015,09,22,06,00,5.90
2015,09,22,06,01,5.90
2015,09,22,06,02,5.90
2015,09,22,06,03,5.90
2015,09,22,06,04,5.80
2015,09,22,06,05,5.80
2015,09,22,06,06,5.80
2015,09,22,06,07,5.80
2015,09,22,06,08,5.80
2015,09,22,06,09,5.80
2015,09,22,06,10,5.80
2015,09,22,06,11,5.80
2015,09,22,06,12,5.80
2015,09,22,06,13,5.80
2015,09,22,06,14,5.80
2015,09,22,06,15,5.70
2015,09,22,06,16,5.70
2015,09,22,06,17,5.70
2015,09,22,06,18,5.70
2015,09,22,06,19,5.70
2015,09,22,06,20,5.70
2015,09,22,06,21,5.70
2015,09,22,06,22,5.70
2015,09,22,06,23,5.70
2015,09,22,06,24,5.70
2015,09,22,06,25,5.70
2015,09,22,06,26,5.70
2015,09,22,06,27,5.70
2015,09,22,06,28,5.60
2015,09,22,06,29,5.60
2015,09,22,06,30,5.60
2015,09,22,06,31,5.70
2015,09,22,06,32,5.70
2015,09,22,06,33,5.70
2015,09,22,06,34,5.70
2015,09,22,06,35,5.70
2015,09,22,06,36,5.70
2015,09,22,06,37,5.70
2015,09,22,06,38,5.70
2015,09,22,06,39,5.70
2015,09,22,06,40,5.70
2015,09,22,06,41,5.70
2015,09,22,06,42,5.70
2015,09,22,06,43,5.70
2015,09,22,06,44,5.70
2015,09,22,06,45,5.70
2015,09,22,06,46,5.70
2015,09,22,06,47,5.70
2015,09,22,06,48,5.70
2015,09,22,06,49,5.70
2015,09,22,06,50,5.80
2015,09,22,06,51,5.80
2015,09,22,06,52,5.70
2015,09,22,06,53,5.70
2015,09,22,06,54,5.70
2015,09,22,06,55,5.70
2015,09,22,06,56,5.70
2015,09,22,06,57,5.80
2015,09,22,06,58,5.80
2015,09,22,06,59,5.80
2015,09,22,07,00,5.80
2015,09,22,07,01,5.80
2015,09,22,07,02,5.80
2015,09,22,07,03,5.80
2015,09,22,07,04,5.80
2015,09,22,07,05,5.80
2015,09,22,07,06,5.80
2015,09,22,07,07,5.80
2015,09,22,07,08,5.70
2015,09,22,07,09,5.70
2015,09,22,07,10,5.70
2015,09,22,07,11,5.70
2015,09,22,07,12,5.70
2015,09,22,07,13,5.70
2015,09,22,07,14,5.70
2015,09,22,07,15,5.70
2015,09,22,07,16,5.70
2015,09,22,07,17,5.70
2015,09,22,07,18,5.60
2015,09,22,07,19,5.60
2015,09,22,07,20,5.60
2015,09,22,07,21,5.60
2015,09,22,07,22,5.60
2015,09,22,07,23,5.60
2015,09,22,07,24,5.60
2015,09,22,07,25,5.60
2015,09,22,07,26,5.70
2015,09,22,07,27,5.70
2015,09,22,07,28,5.70
2015,09,22,07,29,5.80
2015,09,22,07,30,5.80
2015,09,22,07,31,5.90
2015,09,22,07,32,5.90
2015,09,22,07,33,6.00
2015,09,22,07,34,6.00
2015,09,22,07,35,6.10
2015,09,22,07,36,6.20
2015,09,22,07,37,6.20
2015,09,22,07,38,6.30
2015,09,22,07,39,6.30
2015,09,22,07,40,6.30
2015,09,22,07,41,6.40
2015,09,22,07,42,6.40
2015,09,22,07,43,6.40
2015,09,22,07,44,6.50
2015,09,22,07,45,6.50
2015,09,22,07,46,6.60
2015,09,22,07,47,6.60
2015,09,22,07,48,6.60
2015,09,22,07,49,6.70
2015,09,22,07,50,6.70
2015,09,22,07,51,6.70
2015,09,22,07,52,6.80
2015,09,22,07,53,6.80
2015,09,22,07,54,6.80
2015,09,22,07,55,6.80
2015,09,22,07,56,6.80
2015,09,22,07,57,6.80
2015,09,22,07,58,6.80
2015,09,22,07,59,6.80
2015,09,22,08,00,6.80
2015,09,22,08,01,6.90
2015,09,22,08,02,6.90
2015,09,22,08,03,7.00
2015,09,22,08,04,7.10
2015,09,22,08,05,7.10
2015,09,22,08,06,7.20
2015,09,22,08,07,7.20
2015,09,22,08,08,7.20
2015,09,22,08,09,7.30
2015,09,22,08,10,7.30
2015,09,22,08,11,7.40
2015,09,22,08,12,7.50
2015,09,22,08,13,7.60
2015,09,22,08,14,7.60
2015,09,22,08,15,7.70
2015,09,22,08,16,7.80
2015,09,22,08,17,7.90
2015,09,22,08,18,8.00
2015,09,22,08,19,8.10
2015,09,22,08,20,8.20
2015,09,22,08,21,8.20
2015,09,22,08,22,8.30
2015,09,22,08,23,8.40
2015,09,22,08,24,8.50
2015,09,22,08,25,8.60
2015,09,22,08,26,8.80
2015,09,22,08,27,8.90
2015,09,22,08,28,9.00
2015,09,22,08,29,9.10
2015,09,22,08,30,9.30
2015,09,22,08,31,9.40
2015,09,22,08,32,9.50
2015,09,22,08,33,9.60
2015,09,22,08,34,9.80
2015,09,22,08,35,9.90
2015,09,22,08,36,10.00
2015,09,22,08,37,10.10
2015,09,22,08,38,10.20
2015,09,22,08,39,10.30
2015,09,22,08,40,10.30
2015,09,22,08,41,10.40
2015,09,22,08,42,10.50
2015,09,22,08,43,10.60
2015,09,22,08,44,10.70
2015,09,22,08,45,10.80
2015,09,22,08,46,10.80
2015,09,22,08,47,10.80
2015,09,22,08,48,10.80
2015,09,22,08,49,10.90
2015,09,22,08,50,11.00
2015,09,22,08,51,11.10
2015,09,22,08,52,11.10
2015,09,22,08,53,11.20
2015,09,22,08,54,11.30
2015,09,22,08,55,11.30
2015,09,22,08,56,11.30
2015,09,22,08,57,11.30
2015,09,22,08,58,11.30
2015,09,22,08,59,11.30
2015,09,22,09,00,11.30
2015,09,22,09,01,11.20
2015,09,22,09,02,11.20
2015,09,22,09,03,11.30
2015,09,22,09,04,11.30
2015,09,22,09,05,11.30
2015,09,22,09,06,11.30
2015,09,22,09,07,11.30
2015,09,22,09,08,11.20
2015,09,22,09,09,11.20
2015,09,22,09,10,11.30
2015,09,22,09,11,11.20
2015,09,22,09,12,11.20
2015,09,22,09,13,11.20
2015,09,22,09,14,11.20
2015,09,22,09,15,11.30
2015,09,22,09,16,11.30
2015,09,22,09,17,11.30
2015,09,22,09,18,11.30
2015,09,22,09,19,11.30
2015,09,22,09,20,11.30
2015,09,22,09,21,11.30
2015,09,22,09,22,11.40
2015,09,22,09,23,11.40
2015,09,22,09,24,11.50
2015,09,22,09,25,11.50
2015,09,22,09,26,11.60
2015,09,22,09,27,11.70
2015,09,22,09,28,11.70
2015,09,22,09,29,11.80
2015,09,22,09,30,11.80
2015,09,22,09,31,11.90
2015,09,22,09,32,12.00
2015,09,22,09,33,12.00
2015,09,22,09,34,12.10
2015,09,22,09,35,12.10
2015,09,22,09,36,12.10
2015,09,22,09,37,12.10
2015,09,22,09,38,12.10
2015,09,22,09,39,12.10
2015,09,22,09,40,12.10
2015,09,22,09,41,12.00
2015,09,22,09,42,12.00
2015,09,22,09,43,11.90
2015,09,22,09,44,11.90
2015,09,22,09,45,11.90
2015,09,22,09,46,11.80
2015,09,22,09,47,11.80
2015,09,22,09,48,11.80
2015,09,22,09,49,11.90
2015,09,22,09,50,12.00
2015,09,22,09,51,12.00
2015,09,22,09,52,12.10
2015,09,22,09,53,12.10
2015,09,22,09,54,12.10
2015,09,22,09,55,12.10
2015,09,22,09,56,12.20
2015,09,22,09,57,12.20
2015,09,22,09,58,12.30
2015,09,22,09,59,12.40
2015,09,22,10,00,12.40
2015,09,22,10,01,12.40
2015,09,22,10,02,12.40
2015,09,22,10,03,12.40
2015,09,22,10,04,12.40
2015,09,22,10,05,12.40
2015,09,22,10,06,12.40
2015,09,22,10,07,12.40
2015,09,22,10,08,12.30
2015,09,22,10,09,12.30
2015,09,22,10,10,12.30
2015,09,22,10,11,12.40
2015,09,22,10,12,12.50
2015,09,22,10,13,12.50
2015,09,22,10,14,12.60
2015,09,22,10,15,12.60
2015,09,22,10,16,12.70
2015,09,22,10,17,12.70
2015,09,22,10,18,12.80
2015,09,22,10,19,12.80
2015,09,22,10,20,12.90
2015,09,22,10,21,13.00
2015,09,22,10,22,13.00
2015,09,22,10,23,13.00
2015,09,22,10,24,13.10
2015,09,22,10,25,13.20
2015,09,22,10,26,13.20
2015,09,22,10,27,13.30
2015,09,22,10,28,13.20
2015,09,22,10,29,13.20
2015,09,22,10,30,13.20
2015,09,22,10,31,13.20
2015,09,22,10,32,13.20
2015,09,22,10,33,13.20
2015,09,22,10,34,13.10
2015,09,22,10,35,13.10
2015,09,22,10,36,13.10
2015,09,22,10,37,13.10
2015,09,22,10,38,13.10
2015,09,22,10,39,13.10
2015,09,22,10,40,13.20
2015,09,22,10,41,13.20
2015,09,22,10,42,13.30
2015,09,22,10,43,13.30
2015,09,22,10,44,13.40
2015,09,22,10,45,13.40
2015,09,22,10,46,13.40
2015,09,22,10,47,13.40
2015,09,22,10,48,13.40
2015,09,22,10,49,13.40
2015,09,22,10,50,13.40
2015,09,22,10,51,13.40
2015,09,22,10,52,13.40
2015,09,22,10,53,13.50
2015,09,22,10,54,13.50
2015,09,22,10,55,13.60
2015,09,22,10,56,13.60
2015,09,22,10,57,13.70
2015,09,22,10,58,13.70
2015,09,22,10,59,13.70
2015,09,22,11,00,13.80
2015,09,22,11,01,13.80
2015,09,22,11,02,13.80
2015,09,22,11,03,13.80
2015,09,22,11,04,13.90
2015,09,22,11,05,14.00
2015,09,22,11,06,14.20
2015,09,22,11,07,14.30
2015,09,22,11,08,14.40
2015,09,22,11,09,14.50
2015,09,22,11,10,14.40
2015,09,22,11,11,14.40
2015,09,22,11,12,14.50
2015,09,22,11,13,14.40
2015,09,22,11,14,14.40
2015,09,22,11,15,14.40
2015,09,22,11,16,14.30
2015,09,22,11,17,14.30
2015,09,22,11,18,14.30
2015,09,22,11,19,14.30
2015,09,22,11,20,14.30
2015,09,22,11,21,14.30
2015,09,22,11,22,14.30
2015,09,22,11,23,14.30
2015,09,22,11,24,14.30
2015,09,22,11,25,14.40
2015,09,22,11,26,14.40
2015,09,22,11,27,14.40
2015,09,22,11,28,14.40
2015,09,22,11,29,14.30
2015,09,22,11,30,14.30
2015,09,22,11,31,14.30
2015,09,22,11,32,14.30
2015,09,22,11,33,14.40
2015,09,22,11,34,14.50
2015,09,22,11,35,14.50
2015,09,22,11,36,14.50
2015,09,22,11,37,14.40
2015,09,22,11,38,14.40
2015,09,22,11,39,14.40
2015,09,22,11,40,14.40
2015,09,22,11,41,14.50
2015,09,22,11,42,14.50
2015,09,22,11,43,14.60
2015,09,22,11,44,14.60
2015,09,22,11,45,14.70
2015,09,22,11,46,14.70
2015,09,22,11,47,14.70
2015,09,22,11,48,14.80
2015,09,22,11,49,14.80
2015,09,22,11,50,14.90
2015,09,22,11,51,15.00
2015,09,22,11,52,15.00
2015,09,22,11,53,15.00
2015,09,22,11,54,15.00
2015,09,22,11,55,15.00
2015,09,22,11,56,15.00
2015,09,22,11,57,15.00
2015,09,22,11,58,15.00
2015,09,22,11,59,15.10
2015,09,22,12,00,15.10
2015,09,22,12,01,15.20
2015,09,22,12,02,15.20
2015,09,22,12,03,15.20
2015,09,22,12,04,15.20
2015,09,22,12,05,15.20
2015,09,22,12,06,15.20
2015,09,22,12,07,15.20
2015,09,22,12,08,15.20
2015,09,22,12,09,15.20
2015,09,22,12,10,15.20
2015,09,22,12,11,15.20
2015,09,22,12,12,15.10
2015,09,22,12,13,15.00
2015,09,22,12,14,15.00
2015,09,22,12,15,15.00
2015,09,22,12,16,15.00
2015,09,22,12,17,15.00
2015,09,22,12,18,15.00
2015,09,22,12,19,15.00
2015,09,22,12,20,15.00
2015,09,22,12,21,15.00
2015,09,22,12,22,15.00
2015,09,22,12,23,15.00
2015,09,22,12,24,15.00
2015,09,22,12,25,15.00
2015,09,22,12,26,15.00
2015,09,22,12,27,15.00
2015,09,22,12,28,15.10
2015,09,22,12,29,15.10
2015,09,22,12,30,15.20
2015,09,22,12,31,15.10
2015,09,22,12,32,15.10
2015,09,22,12,33,15.20
2015,09,22,12,34,15.20
2015,09,22,12,35,15.30
2015,09,22,12,36,15.30
2015,09,22,12,37,15.30
2015,09,22,12,38,15.30
2015,09,22,12,39,15.30
2015,09,22,12,40,15.40
2015,09,22,12,41,15.50
2015,09,22,12,42,15.60
2015,09,22,12,43,15.60
2015,09,22,12,44,15.70
2015,09,22,12,45,15.70
2015,09,22,12,46,15.80
2015,09,22,12,47,15.80
2015,09,22,12,48,15.80
2015,09,22,12,49,15.80
2015,09,22,12,50,15.90
2015,09,22,12,51,15.80
2015,09,22,12,52,15.80
2015,09,22,12,53,15.90
2015,09,22,12,54,15.90
2015,09,22,12,55,16.00
2015,09,22,12,56,16.20
2015,09,22,12,57,16.30
2015,09,22,12,58,16.40
2015,09,22,12,59,16.40
2015,09,22,13,00,16.30
2015,09,22,13,01,16.30
2015,09,22,13,02,16.20
2015,09,22,13,03,16.20
2015,09,22,13,04,16.20
2015,09,22,13,05,16.00
2015,09,22,13,06,15.80
2015,09,22,13,07,15.70
2015,09,22,13,08,15.50
2015,09,22,13,09,15.40
2015,09,22,13,10,15.30
2015,09,22,13,11,15.30
2015,09,22,13,12,15.20
2015,09,22,13,13,15.20
2015,09,22,13,14,15.10
2015,09,22,13,15,15.00
2015,09,22,13,16,15.00
2015,09,22,13,17,15.00
2015,09,22,13,18,14.90
2015,09,22,13,19,14.80
2015,09,22,13,20,14.70
2015,09,22,13,21,14.70
2015,09,22,13,22,14.60
2015,09,22,13,23,14.60
2015,09,22,13,24,14.50
2015,09,22,13,25,14.50
2015,09,22,13,26,14.50
2015,09,22,13,27,14.50
2015,09,22,13,28,14.50
2015,09,22,13,29,14.60
2015,09,22,13,30,14.60
2015,09,22,13,31,14.60
2015,09,22,13,32,14.60
2015,09,22,13,33,14.60
2015,09,22,13,34,14.60
2015,09,22,13,35,14.60
2015,09,22,13,36,14.60
2015,09,22,13,37,14.60
2015,09,22,13,38,14.60
2015,09,22,13,39,14.70
2015,09,22,13,40,14.70
2015,09,22,13,41,14.60
2015,09,22,13,42,14.70
2015,09,22,13,43,14.70
2015,09,22,13,44,14.70
2015,09,22,13,45,14.60
2015,09,22,13,46,14.60
2015,09,22,13,47,14.60
2015,09,22,13,48,14.60
2015,09,22,13,49,14.50
2015,09,22,13,50,14.50
2015,09,22,13,51,14.50
2015,09,22,13,52,14.50
2015,09,22,13,53,14.60
2015,09,22,13,54,14.60
2015,09,22,13,55,14.60
2015,09,22,13,56,14.60
2015,09,22,13,57,14.60
2015,09,22,13,58,14.60
2015,09,22,13,59,14.60
2015,09,22,14,00,14.70
2015,09,22,14,01,14.80
2015,09,22,14,02,14.90
2015,09,22,14,03,15.00
2015,09,22,14,04,15.00
2015,09,22,14,05,15.10
2015,09,22,14,06,15.20
2015,09,22,14,07,15.30
2015,09,22,14,08,15.40
2015,09,22,14,09,15.50
2015,09,22,14,10,15.60
2015,09,22,14,11,15.70
2015,09,22,14,12,15.80
2015,09,22,14,13,15.90
2015,09,22,14,14,16.00
2015,09,22,14,15,15.90
2015,09,22,14,16,15.90
2015,09,22,14,17,15.80
2015,09,22,14,18,15.70
2015,09,22,14,19,15.70
2015,09,22,14,20,15.70
2015,09,22,14,21,15.70
2015,09,22,14,22,15.60
2015,09,22,14,23,15.60
2015,09,22,14,24,15.60
2015,09,22,14,25,15.60
2015,09,22,14,26,15.60
2015,09,22,14,27,15.60
2015,09,22,14,28,15.70
2015,09,22,14,29,15.70
2015,09,22,14,30,15.70
2015,09,22,14,31,15.70
2015,09,22,14,32,15.70
2015,09,22,14,33,15.60
2015,09,22,14,34,15.60
2015,09,22,14,35,15.60
2015,09,22,14,36,15.60
2015,09,22,14,37,15.60
2015,09,22,14,38,15.70
2015,09,22,14,39,15.70
2015,09,22,14,40,15.70
2015,09,22,14,41,15.80
2015,09,22,14,42,15.90
2015,09,22,14,43,15.90
2015,09,22,14,44,15.90
2015,09,22,14,45,15.90
2015,09,22,14,46,15.90
2015,09,22,14,47,15.80
2015,09,22,14,48,15.80
2015,09,22,14,49,15.70
2015,09,22,14,50,15.70
2015,09,22,14,51,15.70
2015,09,22,14,52,15.70
2015,09,22,14,53,15.70
2015,09,22,14,54,15.80
2015,09,22,14,55,15.80
2015,09,22,14,56,15.80
2015,09,22,14,57,15.80
2015,09,22,14,58,15.80
2015,09,22,14,59,15.80
2015,09,22,15,00,15.70
2015,09,22,15,01,15.70
2015,09,22,15,02,15.70
2015,09,22,15,03,15.70
2015,09,22,15,04,15.80
2015,09,22,15,05,15.70
2015,09,22,15,06,15.70
2015,09,22,15,07,15.70
2015,09,22,15,08,15.70
2015,09,22,15,09,15.70
2015,09,22,15,10,15.80
2015,09,22,15,11,15.80
2015,09,22,15,12,15.80
2015,09,22,15,13,15.80
2015,09,22,15,14,15.80
2015,09,22,15,15,15.80
2015,09,22,15,16,15.80
2015,09,22,15,17,15.80
2015,09,22,15,18,15.90
2015,09,22,15,19,15.90
2015,09,22,15,20,16.00
2015,09,22,15,21,16.10
2015,09,22,15,22,16.20
2015,09,22,15,23,16.30
2015,09,22,15,24,16.50
2015,09,22,15,25,16.70
2015,09,22,15,26,16.80
2015,09,22,15,27,16.90
2015,09,22,15,28,16.90
2015,09,22,15,29,17.00
2015,09,22,15,30,17.00
2015,09,22,15,31,17.10
2015,09,22,15,32,17.10
2015,09,22,15,33,17.20
2015,09,22,15,34,17.20
2015,09,22,15,35,17.20
2015,09,22,15,36,17.10
2015,09,22,15,37,17.10
2015,09,22,15,38,17.00
2015,09,22,15,39,16.70
2015,09,22,15,40,16.20
2015,09,22,15,41,15.90
2015,09,22,15,42,15.60
2015,09,22,15,43,15.40
2015,09,22,15,44,15.20
2015,09,22,15,45,15.00
2015,09,22,15,46,15.00
2015,09,22,15,47,15.00
2015,09,22,15,48,15.00
2015,09,22,15,49,15.00
2015,09,22,15,50,15.00
2015,09,22,15,51,15.00
2015,09,22,15,52,15.00
2015,09,22,15,53,15.00
2015,09,22,15,54,15.10
2015,09,22,15,55,15.20
2015,09,22,15,56,15.30
2015,09,22,15,57,15.30
2015,09,22,15,58,15.30
2015,09,22,15,59,15.30
2015,09,22,16,00,15.20
2015,09,22,16,01,15.00
2015,09,22,16,02,15.00
2015,09,22,16,03,14.80
2015,09,22,16,04,14.60
2015,09,22,16,05,14.50
2015,09,22,16,06,14.30
2015,09,22,16,07,14.10
2015,09,22,16,08,14.00
2015,09,22,16,09,14.00
2015,09,22,16,10,13.90
2015,09,22,16,11,13.90
2015,09,22,16,12,13.90
2015,09,22,16,13,13.90
2015,09,22,16,14,13.80
2015,09,22,16,15,13.80
2015,09,22,16,16,13.80
2015,09,22,16,17,13.80
2015,09,22,16,18,13.90
2015,09,22,16,19,13.90
2015,09,22,16,20,13.90
2015,09,22,16,21,13.90
2015,09,22,16,22,14.00
2015,09,22,16,23,14.00
2015,09,22,16,24,14.00
2015,09,22,16,25,14.00
2015,09,22,16,26,14.10
2015,09,22,16,27,14.10
2015,09,22,16,28,14.00
2015,09,22,16,29,13.90
2015,09,22,16,30,13.80
2015,09,22,16,31,13.80
2015,09,22,16,32,13.80
2015,09,22,16,33,13.80
2015,09,22,16,34,13.80
2015,09,22,16,35,13.80
2015,09,22,16,36,13.80
2015,09,22,16,37,13.90
2015,09,22,16,38,13.90
2015,09,22,16,39,14.00
2015,09,22,16,40,14.00
2015,09,22,16,41,14.10
2015,09,22,16,42,14.20
2015,09,22,16,43,14.20
2015,09,22,16,44,14.30
2015,09,22,16,45,14.40
2015,09,22,16,46,14.50
2015,09,22,16,47,14.60
2015,09,22,16,48,14.60
2015,09,22,16,49,14.70
2015,09,22,16,50,14.80
2015,09,22,16,51,14.90
2015,09,22,16,52,15.00
2015,09,22,16,53,15.00
2015,09,22,16,54,15.10
2015,09,22,16,55,15.20
2015,09,22,16,56,15.30
2015,09,22,16,57,15.40
2015,09,22,16,58,15.40
2015,09,22,16,59,15.40
2015,09,22,17,00,15.30
2015,09,22,17,01,15.30
2015,09,22,17,02,15.30
2015,09,22,17,03,15.20
2015,09,22,17,04,15.20
2015,09,22,17,05,15.10
2015,09,22,17,06,15.00
2015,09,22,17,07,15.00
2015,09,22,17,08,15.00
2015,09,22,17,09,15.00
2015,09,22,17,10,15.00
2015,09,22,17,11,14.90
2015,09,22,17,12,14.80
2015,09,22,17,13,14.70
2015,09,22,17,14,14.60
2015,09,22,17,15,14.50
2015,09,22,17,16,14.40
2015,09,22,17,17,14.40
2015,09,22,17,18,14.30
2015,09,22,17,19,14.30
2015,09,22,17,20,14.30
2015,09,22,17,21,14.30
2015,09,22,17,22,14.20
2015,09,22,17,23,14.20
2015,09,22,17,24,14.10
2015,09,22,17,25,14.10
2015,09,22,17,26,14.10
2015,09,22,17,27,14.00
2015,09,22,17,28,13.90
2015,09,22,17,29,13.80
2015,09,22,17,30,13.80
2015,09,22,17,31,13.70
2015,09,22,17,32,13.70
2015,09,22,17,33,13.60
2015,09,22,17,34,13.60
2015,09,22,17,35,13.60
2015,09,22,17,36,13.60
2015,09,22,17,37,13.60
2015,09,22,17,38,13.60
2015,09,22,17,39,13.50
2015,09,22,17,40,13.50
2015,09,22,17,41,13.50